Regional Weather Roundup
Issued by NWS Grand Forks, ND

Home | Current Version | Previous Version | Graphics & Text | Print | Product List | Glossary On
Versions: 1 2 3 4 5 6 7 8 9 10 11 12 13 14 15 16 17 18 19 20 21 22 23 24 25 26 27 28 29 30 31 32 33 34 35 36 37 38 39 40 41 42 43 44 45 46 47 48 49 50
000
ASUS43 KFGF 160410
RWRFGF
PRAIRIE TO PINES  WEATHER ROUNDUP
NATIONAL WEATHER SERVICE EASTERN NORTH DAKOTA/GRAND FORKS ND
1100 PM CDT MON SEP 15 2014

 **SATELLITE DATA USED TO AUGMENT SKY COVER AT AUTOMATED STATIONS**
 *****  WEATHER ACROSS EASTERN NORTH DAKOTA  *****

CITY           SKY/WX    TMP DP  RH WIND       PRES   REMARKS
GRAND FORKS    CLEAR     51  40  65 SW8       30.08S
GRAND FRKS AFB CLEAR     47  42  80 SW8       30.09S
GRAND FRKS NWS   N/A     50 N/A N/A W6          N/A
DEVILS LAKE    CLEAR     48  37  66 SW7       30.08S
FARGO          CLEAR     55  38  52 SW14      30.13S
WAHPETON ARPT  CLEAR     43  34  70 S7        30.17S
$$

 ***** WEATHER ACROSS CENTRAL AND WESTERN NORTH DAKOTA  *****

CITY           SKY/WX    TMP DP  RH WIND       PRES   REMARKS
BISMARCK       CLEAR     44  39  82 SE6       30.13S
MINOT          CLEAR     51  37  58 SW7       30.07F
JAMESTOWN      CLEAR     50  38  63 SW8       30.13S
MINOT AFB      CLEAR     47  38  71 S7        30.06F
GARRISON         N/A     44  41  89 CALM      30.09S
WILLISTON      CLEAR     44  34  67 CALM      30.06S
DICKINSON      CLEAR     47  38  71 S9        30.08S
HETTINGER      CLEAR     48  39  71 SE7       30.11F
$$

 *****  OTHER AIRPORT OBSERVATIONS IN OUR AREA  *****

CITY           SKY/WX    TMP DP  RH WIND       PRES   REMARKS
WALHALLA         N/A     48  39  71 CALM      30.03F
GRAFTON AIRPOR FAIR      45  37  76 SW8       30.05F
VALLEY CITY AR FAIR      45  41  87 SW9       30.14S
CANDO          FAIR      46  37  71 SW12      30.08F
CAVALIER APRT  FAIR      50  37  62 SW9       30.04F
GWINNER        CLEAR     46  39  76 SW8       30.18S
SHEYENNE NWR     N/A     44  39  83 SW3       29.95S
ROLLA          FAIR      48  39  71 SW10      30.07S
 ***** THE ABOVE OBSERVATIONS ARE NON NWS ARE NOT QUALITY
       CONTROLLED AND MAY MIS-REPORT RAIN FOR SNOW...
$$

  *****  WEATHER ACROSS NORTHERN MINNESOTA  *****

CITY           SKY/WX    TMP DP  RH WIND       PRES   REMARKS
FLAG ISLAND    CLEAR     54  43  66 SW6       30.00F
WARROAD        CLEAR     46  41  81 SW7       30.04S
ROSEAU         CLEAR     46  41  81 SW7       30.04S
HALLOCK        CLEAR     43  39  87 S6        30.04F
THF RVR FALLS  CLEAR     48  39  71 SW10      30.08S
BAUDETTE       PTCLDY    46  39  76 S5        30.04F
WASKISH        CLEAR     48  41  76 CALM      30.07F
CROOKSTON      CLEAR     46  43  87 SW9       30.10S
STEPHEN NDAWN    N/A     45  39  81 S3          N/A
GREENBUSH NDAW   N/A     46  41  81 SW5         N/A
$$
  *****  WEATHER ACROSS CENTRAL AND WEST MINNESOTA  *****

CITY           SKY/WX    TMP DP  RH WIND       PRES   REMARKS
FOSSTON        CLEAR     46  37  71 S9        30.11F
BEMIDJI        CLEAR     47  39  73 SW7       30.11F
PARK RAPIDS    CLEAR     44  37  76 SW7       30.14F
ELBOW LAKE     FAIR      44  37  76 S5        30.19S
WADENA         CLEAR     43  36  75 S6        30.17S
DETROIT LAKES  CLEAR     50  39  66 SW9       30.16S
MOORHEAD       CLEAR     50  43  76 SW7       30.15S
FERGUS FALLS   CLEAR     45  36  70 S6        30.19R
MORRIS MN      CLEAR     43  37  81 S5        30.19S
STAPLES        CLEAR     39  36  87 S5        30.17S
$$
  *****  WEATHER ELSEWHERE ACROSS MINNESOTA  *****

CITY           SKY/WX    TMP DP  RH WIND       PRES   REMARKS
DULUTH         CLEAR     43  35  73 W6        30.15S
INTRNTL FALLS  CLOUDY    43  39  86 CALM      30.06F
ELY            CLEAR     41  36  81 SW3       30.10F
CLOQUET        CLEAR     45  36  70 SW5       30.15F
WHEATON        CLEAR     45  36  70 S9        30.21S
BRAINERD       CLEAR     39  37  92 S5        30.18S
HIBBING        CLEAR     35  31  85 CALM      30.13S
ALEXANDRIA     CLEAR     46  38  73 S6        30.20F
SAINT CLOUD    CLEAR     44  40  85 S3        30.21R
MINNEAPOLIS    CLEAR     52  40  63 CALM      30.22S
$$

  *****  WEATHER ACROSS SOUTH DAKOTA  *****

CITY           SKY/WX    TMP DP  RH WIND       PRES   REMARKS
SIOUX FALLS    CLEAR     46  43  89 CALM      30.24S
BROOKINGS      NOT AVBL
WATERTOWN      CLEAR     44  38  79 S3        30.21F
HURON          CLEAR     49  35  58 SE5       30.21F
SISSETON         N/A     43  38  82 SW6       30.18S
ABERDEEN       CLEAR     44  37  76 S8        30.19S
MITCHELL       CLEAR     50  42  74 S5        30.24S
PIERRE         CLEAR     48  38  68 SE8       30.16F
MOBRIDGE       CLEAR     46  43  89 E8        30.13F
RAPID CITY     CLEAR     49  42  77 S6        30.11F
$$

  *****  SOME WEATHER IN NEARBY STATES *****

CITY           SKY/WX    TMP DP  RH WIND       PRES   REMARKS
GLASGOW MT     CLEAR     53  37  54 E12       30.03F
GREAT FALLS MT CLEAR     56  41  57 E6        30.02S
CHEYENNE WY    PTCLDY    54  45  71 SW10      30.27F
SCOTTSBLUFF NE PTCLDY    55  47  74 E10       30.17S
OMAHA NE       CLEAR     50  46  86 CALM      30.27S
DES MOINES IA  CLEAR     52  45  77 CALM      30.25R
DAVENPORT IA   CLEAR     44  42  93 N3        30.22R
CHICAGO IL     PTCLDY    53  48  83 NW7       30.17R
EAU CLAIRE WI  CLEAR     42  38  85 CALM      30.21R
LA CROSSE WI   CLEAR     49  45  86 CALM      30.22S
$$

  *****  SOME NATIONAL WEATHER *****

CITY           SKY/WX    TMP DP  RH WIND       PRES   REMARKS
LA GUARDIA NY  MOCLDY    64  52  64 S7        30.08F
RALEIGH NC     CLOUDY    69  65  86 S5        30.11F
ATLANTA GA     CLOUDY    73  70  90 S3        30.16R
NEW ORLEANS LA CLOUDY    79  76  90 CALM      30.09R
OKLAHOMA CITY  MOCLDY    74  69  85 S7        30.14S
ALBUQUERQUE NM CLOUDY    71  58  63 SE12      30.30R
SALT LAKE CITY PTCLDY    71  43  36 S7        30.07R
LOS ANGELES CA CLEAR     80  61  52 SW3       29.75R
BOISE ID       PTCLDY    76  34  21 SE6       29.92S
SEATTLE WA     PTCLDY    71  46  40 N3        29.82R
$$

*** WEATHER ACROSS MANITOBA...SASKATCHEWAN AND ONTARIO ***
                ***ONTARIO***

CITY           SKY/WX    TMP DP  RH WIND       PRES   REMARKS
GERALDTON      MOCLDY    45  41  87 SW8       29.93F
THUNDER BAY    CLEAR     39  37  93 W7        30.05F
SIOUX LOOKOUT  CLEAR     50  39  66 SW10G17   29.96F
TORONTO        LGT RAIN  55  52  88 W7        30.05S
BIG TROUT LK   LGT RAIN  36  34  93 N10G20    29.83R
PICKLE LAKE    NOT AVBL
DRYDEN         CLEAR     48  39  71 SW9       29.99F
KENORA         PTCLDY    50  37  62 SW8       30.00F
$$
                *** MANITOBA***

CITY           SKY/WX    TMP DP  RH WIND       PRES   REMARKS
BRANDON        MOCLDY    52  43  71 W9        30.01R
DAUPHIN        CLOUDY    59  45  58 SW10      29.92F
ISLAND LAKE    CLOUDY    39  37  93 N6        29.95R
PILOT MOUND      N/A     46  39  76 SW8         N/A
THE PAS        PTCLDY    48  43  81 NE10G21   29.97R
THOMPSON       PTCLDY    27  25  93 NE3       30.06R
WINNIPEG       PTCLDY    55  37  50 SW13      29.99F
LYNN LAKE      CLEAR     28  21  74 MISG      30.09R
CHURCHILL      MOCLDY    36  28  75 N17G24    29.99F
GILLAM         PTCLDY    34  28  80 N15       30.03R WCI  24
$$
                ***SASKATCHEWAN***

CITY           SKY/WX    TMP DP  RH WIND       PRES   REMARKS
ESTEVAN        PTCLDY    46  37  71 S6        30.04F
KINDERSLEY     NOT AVBL
LLOYDMINSTER   CLEAR     55  43  62 NE6       29.95R
PRINCE ALBERT  PTCLDY    50  46  87 CALM      29.95R
REGINA         CLEAR     48  41  76 S6        30.02S
YORKTON        CLOUDY    57  43  58 SW9       29.96F
N. BATTLEFORD  CLEAR     48  41  76 S5        29.94F
LA RONGE       CLOUDY    48  43  81 NE17      29.98R
SASKATOON      CLEAR     50  43  76 CALM      29.96S
SWIFT CURRENT  CLEAR     46  37  71 SE9       30.01S
$$
NOTE: THESE ARE AUTOMATED STATIONS WITH LIMITED QUALITY CONTROL
      "FAIR" INDICATES FEW OR NO CLOUDS BELOW 12,000 FEET WITH NO
      SIGNIFICANT WEATHER AND/OR OBSTRUCTIONS TO VISIBILITY.
      SKY/WX - SKY CONDITION AND SIGNIFICANT WEATHER.
      TMP - AIR TEMPERATURE.    DP   - DEWPOINT TEMPERATURE.
      RH  - RELATIVE HUMIDITY.  PRES - PRESSURE.
      HX  - HEAT INDEX.         WCI  - WIND CHILL INDEX.
$



USA.gov is the U.S. government's official web portal to all federal, state and local government web resources and services.